ARSAT 1

Last updated on Sun Jun 21 2026 00:03:06 GMT+0000 (Coordinated Universal Time)

1 40272U 14062B 26171.37777042 -.00000264 00000+0 00000+0 0 9993 2 40272 0.0120 4.0555 0001844 74.6952 254.0256 1.00272447 42657
UTC large
Height (km)
Speed (km/s)
/
Latitude / Longitude
Inclination (degrees)
Orbital Period (minutes)
Azimuth
Elevation
Range (km)
Doppler Factor

Next 0 passes for location: London (51.5072 / 0.1276)

No passes found over London.
ARSAT 1